Szeged, Hungary

5:28 PM CEST on April 25, 2017 (GMT +0200)
Szeged

Weather History for LHUD - August, 2013

Change the Weather History Date:

Thursday, August 8, 2013

  Actual Average (LRAR) Record (LRAR)
Temperature  
Mean Temperature 82 °F -  
Max Temperature 100 °F 79 °F 100 °F (2013)
Min Temperature 64 °F 55 °F 53 °F (2005)
Cooling Degree Days 17    
Growing Degree Days 32 (Base 50)    
Moisture  
Dew Point 59 °F    
Average Humidity 45    
Maximum Humidity 88    
Minimum Humidity 17    
Precipitation  
Precipitation 0.00 in 0.07 in - ()
Sea Level Pressure  
Sea Level Pressure 29.98 in    
Wind  
Wind Speed 5 mph ()    
Max Wind Speed 12 mph    
Max Gust Speed -    
Visibility 19.0 miles    
Events      
Averages and records for this station are not official NWS values.
T = Trace of Precipitation, MM = Missing Value Source: Averaged Metar Reports

Daily Weather History Graph

Daily Weather History Graph

Search for Another Location

Airport or City:

Trip Planner

Search our weather history database for the weather conditions in past years. The results will help you decide how hot, cold, wet, or windy it might be!

Date:

Astronomy

Aug. 08, 2013 Rise Set
Actual Time 5:29 AM CEST 7:59 PM CEST
Civil Twilight 4:55 AM CEST 8:33 PM CEST
Nautical Twilight 4:13 AM CEST 9:15 PM CEST
Astronomical Twilight 3:24 AM CEST 10:03 PM CEST
Moon 7:07 AM CEST (8/8) 8:18 PM CEST (8/8)
Length of Visible Light 15h 37m
Length of Day
14h 30m
New Moon, 2% of the Moon is Illuminated
Aug 8
New Moon
Aug 14
First Quarter
Aug 21
Full
Aug 28
Last Quarter
Sep 5
New

Hourly Weather History & Observations

Time (CEST) Temp. Heat Index Dew Point Humidity Pressure Visibility Wind Dir Wind Speed Gust Speed Precip Events Conditions
12:45 AM 68.0 °F - 59.0 °F 73% 29.98 in - ENE 3.5 mph - N/A   Clear
1:45 AM 68.0 °F - 60.8 °F 78% 29.98 in - SSE 3.5 mph - N/A   Clear
2:00 AM 67 °F - 61 °F 75% 29.98 in 19 mi SSE 2.2 mph - -   Partly Cloudy
2:45 AM 66.2 °F - 60.8 °F 83% 30.01 in - SW 2.3 mph - N/A   Clear
3:45 AM 64.4 °F - 59.0 °F 83% 29.98 in - SE 3.5 mph - N/A   Clear
4:45 AM 64.4 °F - 60.8 °F 88% 29.98 in - SE 1.2 mph - N/A   Clear
5:45 AM 64.4 °F - 59.0 °F 83% 29.98 in - East 3.5 mph - N/A   Clear
6:45 AM 73.4 °F - 60.8 °F 65% 29.98 in - SE 5.8 mph - N/A   Clear
7:15 AM 75.2 °F - 60.8 °F 61% 29.98 in - SE 6.9 mph - N/A   Clear
7:45 AM 77.0 °F - 60.8 °F 57% 29.98 in - SE 5.8 mph - N/A   Clear
8:00 AM 78 °F - 60 °F 44% 29.98 in 19 mi SE 6.7 mph - -   Partly Cloudy
8:15 AM 80.6 °F 81.5 °F 60.8 °F 51% 30.01 in - SSE 5.8 mph - N/A   Clear
8:45 AM 82.4 °F 82.9 °F 60.8 °F 48% 30.01 in - SE 5.8 mph - N/A   Clear
9:15 AM 86.0 °F 86.6 °F 62.6 °F 45% 30.01 in - SE 6.9 mph - N/A   Clear
9:45 AM 87.8 °F 87.6 °F 60.8 °F 40% 30.01 in - SE 6.9 mph - N/A   Clear
10:15 AM 89.6 °F 89.5 °F 60.8 °F 38% 30.01 in - SE 9.2 mph - N/A   Clear
10:45 AM 93.2 °F 93.3 °F 60.8 °F 34% 30.01 in - SSE 9.2 mph - N/A   Clear
11:15 AM 95.0 °F 94.4 °F 59.0 °F 30% 30.01 in - SSE 11.5 mph - N/A   Clear
11:45 AM 95.0 °F 94.4 °F 59.0 °F 30% 30.01 in - SSE 11.5 mph - N/A   Clear
12:15 PM 96.8 °F 97.1 °F 60.8 °F 30% 30.01 in - South 9.2 mph - N/A   Clear
12:45 PM 96.8 °F 96.2 °F 59.0 °F 28% 30.01 in - South 9.2 mph - N/A   Clear
1:15 PM 98.6 °F 97.6 °F 57.2 °F 25% 30.01 in - South 9.2 mph - N/A   Clear
1:45 PM 98.6 °F 97.6 °F 57.2 °F 25% 29.98 in - South 9.2 mph - N/A   Clear
2:00 PM 99 °F - 58 °F 17% 29.97 in 19 mi South 8.9 mph - -   Partly Cloudy
2:15 PM 98.6 °F 97.2 °F 55.4 °F 24% 29.98 in - SSW 8.1 mph - N/A   Clear
2:45 PM 98.6 °F 97.6 °F 57.2 °F 25% 29.98 in - SSW 8.1 mph - N/A   Clear
3:15 PM 100.4 °F 99.7 °F 57.2 °F 24% 29.98 in - South 8.1 mph - N/A   Clear
3:45 PM 100.4 °F 99.7 °F 57.2 °F 24% 29.98 in - SW 6.9 mph - N/A   Clear
4:15 PM 98.6 °F 97.2 °F 55.4 °F 24% 29.98 in - SSW 8.1 mph - N/A   Clear
4:45 PM 98.6 °F 97.6 °F 57.2 °F 25% 29.98 in - SSW 6.9 mph - N/A   Clear
5:15 PM 98.6 °F 97.2 °F 55.4 °F 24% 29.95 in - South 5.8 mph - N/A   Clear
5:45 PM 98.6 °F 97.2 °F 55.4 °F 24% 29.95 in - South 4.6 mph - N/A   Clear
6:15 PM 96.8 °F 95.1 °F 55.4 °F 25% 29.95 in - SSE 4.6 mph - N/A   Clear
6:45 PM 95.0 °F 93.7 °F 57.2 °F 28% 29.95 in - SSE 4.6 mph - N/A   Clear
7:15 PM 91.4 °F 89.9 °F 57.2 °F 31% 29.95 in - SE 5.8 mph - N/A   Clear
7:45 PM 87.8 °F 86.5 °F 57.2 °F 35% 29.95 in - ESE 5.8 mph - N/A   Clear
8:15 PM 84.2 °F 83.5 °F 57.2 °F 40% 29.95 in - ESE 4.6 mph - N/A   Clear
8:45 PM 78.8 °F - 59.0 °F 51% 29.98 in - SSE 3.5 mph - N/A   Clear
9:15 PM 75.2 °F - 60.8 °F 61% 29.98 in - SSE 2.3 mph - N/A   Clear
9:45 PM 75.2 °F - 59.0 °F 57% 29.98 in - SE 4.6 mph - N/A   Clear
10:45 PM 71.6 °F - 60.8 °F 69% 29.98 in - SE 4.6 mph - N/A   Clear
11:45 PM 69.8 °F - 60.8 °F 73% 29.98 in - SE 1.2 mph - N/A   Clear